QFA533 YBBN-YSSY

Flight info

Callsign QFA533
Flight time N/A
Altitude 36000
Route BN H91 IGDAM H652 BOREE BORE4A/16R
Aircraft A21N/M-SDE3FGHIRWY/LB1

Departure

Time N/A
Airport Brisbane International Airport (YBBN)

Arrival

Time 2026-05-06 05:24
Airport Sydney Kingsford Smith International Airport (YSSY)
Time Latitude Longitude Altitude Speed Heading
2026-05-06 05:24 -33.94587 151.17592 35 ft 66 kts 169°
2026-05-06 05:24 -33.94851 151.17664 35 ft 32 kts 167°
2026-05-06 05:25 -33.95062 151.17722 35 ft 24 kts 167°
2026-05-06 05:25 -33.95144 151.17780 35 ft 13 kts 101°
2026-05-06 05:25 -33.95145 151.17850 35 ft 9 kts 81°
2026-05-06 05:25 -33.95099 151.17926 35 ft 13 kts 22°
2026-05-06 05:26 -33.94994 151.17917 35 ft 17 kts 347°
2026-05-06 05:26 -33.94865 151.17882 35 ft 20 kts 348°
2026-05-06 05:26 -33.94716 151.17844 35 ft 23 kts 348°
2026-05-06 05:26 -33.94551 151.17801 35 ft 24 kts 348°
2026-05-06 05:27 -33.94378 151.17750 35 ft 26 kts 343°
2026-05-06 05:27 -33.94190 151.17690 35 ft 29 kts 346°
2026-05-06 05:27 -33.93988 151.17631 35 ft 30 kts 348°
2026-05-06 05:27 -33.93833 151.17595 35 ft 24 kts 349°
2026-05-06 05:28 -33.93702 151.17557 35 ft 17 kts 346°
2026-05-06 05:28 -33.93569 151.17523 35 ft 21 kts 348°
2026-05-06 05:28 -33.93417 151.17503 35 ft 11 kts 11°
2026-05-06 05:28 -33.93355 151.17570 35 ft 11 kts 40°
2026-05-06 05:29 -33.93265 151.17561 35 ft 15 kts 346°
2026-05-06 05:29 -33.93147 151.17529 35 ft 19 kts 347°
2026-05-06 05:29 -33.93053 151.17528 35 ft 14 kts 17°
2026-05-06 05:29 -33.93015 151.17612 35 ft 3 kts 128°
2026-05-06 05:30 -33.93027 151.17688 35 ft 15 kts 100°
2026-05-06 05:30 -33.93062 151.17786 35 ft 13 kts 102°
2026-05-06 05:30 -33.93071 151.17816 35 ft 2 kts 133°
2026-05-06 05:30 -33.93091 151.17822 35 ft 3 kts 188°
2026-05-06 05:31 -33.93111 151.17810 35 ft 0 kts 207°
2026-05-06 05:31 -33.93117 151.17807 35 ft 1 kts 198°
2026-05-06 05:31 -33.93137 151.17802 35 ft 4 kts 189°
2026-05-06 05:31 -33.93144 151.17801 35 ft 0 kts 189°